Location: Central Falls
(41.8900°N, 71.3929°W)
Time: 16:21:56
(UTC+00:00)

Vanguard 1 - Pass Details

Date: 04 December 2023
Orbit: 653 x 3826 km, 34.3° (Epoch: 24 February)

Event Time Altitude Azimuth Distance (km) Brightness Sun altitude
Rises 20:52:24 0° 207° (SSW) 5,058 14.9 2.7°
Reaches altitude 10° 20:55:38 10° 198° (SSW) 4,446 14.3 2.2°
Maximum altitude 21:07:10 35° 138° (SE) 3,927 13.1 0.4°
Drops below altitude 10° 21:24:42 10° 83° (E) 6,742 13.7 -2.5°
Enters shadow 21:30:14 - 77° (ENE) 7,786 14.0 -3.4°
Sets 21:31:03 0° 76° (ENE) 7,938 - -3.5°
